Location: Tuebingen alte Sternwarte
(48.5376°N, 9.0555°E)
Time: 10:48:46
(UTC+02:00)

Envisat - Pass Details

Date: 24 September 2017
Orbit: 764 x 766 km, 98.2° (Epoch: 19 October)

Event Time Altitude Azimuth Distance (km) Brightness Sun altitude
Exits shadow 20:17:07 - 136° (SE) 2,456 5.1 -10.7°
Reaches altitude 10° 20:17:32 10° 134° (SE) 2,301 5.0 -10.7°
Maximum altitude 20:22:13 39° 67° (ENE) 1,135 3.5 -11.5°
Drops below altitude 10° 20:26:56 10° 359° (N) 2,315 5.7 -12.3°
Sets 20:29:22 0° 352° (N) 3,245 6.5 -12.7°
